N5VIS Weather Reports


time (UTC)temp
C
wind
direction
speed
KPH
gust
KPH
rain 1hr
cm
rain 24hr
cm
rain mn
cm
humidity
%
barometer
mb
20260505083428 14 35 0.0 0.0 0.00 0.00 0.00 87 1013.7
20260505082925 14 35 0.0 0.0 0.00 0.00 0.00 86 1013.8
20260505082420 14 35 0.0 0.0 0.00 0.00 0.00 87 1013.8
20260505081918 14 35 0.0 0.0 0.00 0.00 0.00 86 1014.0
20260505081415 14 32 0.0 0.0 0.00 0.00 0.00 86 1013.9
20260505080911 14 32 0.0 0.0 0.00 0.00 0.00 86 1014.0
20260505080407 14 32 0.0 0.0 0.00 0.00 0.00 86 1014.0
20260505075903 14 32 0.0 0.0 0.00 0.00 0.00 86 1014.0
20260505075359 14 32 0.0 0.0 0.00 0.00 0.00 86 1014.0
20260505074857 14 32 0.0 0.0 0.00 0.00 0.00 86 1014.0
20260505074354 14 28 0.0 0.0 0.00 0.00 0.00 86 1014.0
20260505073851 14 16 0.0 0.0 0.00 0.00 0.00 86 1013.8
20260505073349 14 16 0.0 0.0 0.00 0.00 0.00 86 1013.9
20260505072846 14 16 0.0 0.0 0.00 0.00 0.00 85 1014.2
20260505072342 14 16 0.0 0.0 0.00 0.00 0.00 85 1014.1
20260505071838 14 16 0.0 0.0 0.00 0.00 0.00 85 1014.2
20260505071335 15 14 0.0 0.0 0.00 0.00 0.00 84 1014.1
20260505070833 15 12 0.0 0.0 0.00 0.00 0.00 83 1014.4
20260505070329 15 12 0.0 0.0 0.00 0.00 0.00 82 1014.3
20260505065824 15 12 0.0 0.0 0.00 0.00 0.00 82 1014.3
20260505065321 15 12 0.0 0.0 0.00 0.00 0.00 82 1014.5
20260505064819 15 12 0.0 0.0 0.00 0.00 0.00 81 1014.7
20260505064315 15 7 0.0 0.0 0.00 0.00 0.00 81 1014.8
20260505063814 15 1 0.0 0.0 0.00 0.00 0.00 80 1014.8
20260505063309 15 24 0.0 0.0 0.00 0.00 0.00 80 1014.8
20260505062806 16 23 0.0 0.0 0.00 0.00 0.00 80 1014.8
20260505062304 16 19 0.0 0.0 0.00 0.00 0.00 79 1014.9
20260505061800 16 18 0.0 0.0 0.00 0.00 0.00 78 1014.9
20260505061258 16 18 0.0 0.0 0.00 0.00 0.00 77 1015.0
20260505060755 16 18 0.0 0.0 0.00 0.00 0.00 76 1015.3
20260505060252 16 16 0.0 0.0 0.00 0.00 0.00 76 1015.2
20260505055747 16 16 0.0 0.0 0.00 0.00 0.00 76 1015.2
20260505055244 16 11 0.0 0.0 0.00 0.00 0.00 75 1015.3
20260505054742 16 10 0.0 0.0 0.00 0.00 0.00 76 1015.4
20260505054239 16 5 0.0 0.0 0.00 0.00 0.00 75 1015.5
20260505053737 16 358 0.0 0.0 0.00 0.00 0.00 75 1015.7
20260505053234 16 358 0.0 0.0 0.00 0.00 0.00 75 1015.5
20260505052731 16 41 0.0 0.0 0.00 0.00 0.00 75 1015.5
20260505052228 16 16 0.0 0.0 0.00 0.00 0.00 75 1015.6
20260505051725 16 15 0.0 0.0 0.00 0.00 0.00 76 1015.6
20260505051223 16 348 0.0 0.0 0.00 0.00 0.00 76 1015.5
20260505050720 16 345 0.0 0.0 0.00 0.00 0.00 75 1015.3
20260505050219 16 359 0.0 0.0 0.00 0.00 0.00 76 1015.5
20260505041648 16 40 0.0 0.0 0.00 0.00 0.00 74 1015.8
20260505041146 16 358 0.0 0.0 0.00 0.00 0.00 73 1015.7
20260505040643 16 26 0.0 0.0 0.00 0.00 0.00 73 1015.6
20260505040140 16 12 0.0 0.0 0.00 0.00 0.00 74 1015.6
20260505035636 17 12 0.0 0.0 0.00 0.00 0.00 73 1015.5
20260505035132 17 3 0.0 0.0 0.00 0.00 0.00 73 1015.4
20260505034629 16 19 0.0 0.0 0.00 0.00 0.00 73 1015.5
20260505034126 16 353 0.0 0.0 0.00 0.00 0.00 73 1015.5
20260505033622 16 358 0.0 0.0 0.00 0.00 0.00 73 1015.5
20260505033121 17 356 0.0 0.0 0.00 0.00 0.00 72 1015.6
20260505032619 17 34 0.0 0.0 0.00 0.00 0.00 72 1015.5
20260505032115 17 27 0.0 0.0 0.00 0.00 0.00 73 1015.7
20260505031612 17 15 0.0 0.0 0.00 0.00 0.00 73 1015.5
20260505031108 17 11 0.0 0.0 0.00 0.00 0.00 72 1015.5
20260505030605 17 354 0.0 0.0 0.00 0.00 0.00 71 1015.5
20260505025557 17 7 0.0 0.0 0.00 0.00 0.00 71 1015.9
20260505025056 17 7 0.0 0.0 0.00 0.00 0.00 70 1015.7
20260505024553 17 8 0.0 0.0 0.00 0.00 0.00 70 1015.6
20260505024050 18 8 0.0 0.0 0.00 0.00 0.00 69 1015.5
20260505023547 18 12 0.0 0.0 0.00 0.00 0.00 69 1015.5
20260505023045 18 40 0.0 0.0 0.00 0.00 0.00 69 1015.6
20260505022542 18 18 0.0 0.0 0.00 0.00 0.00 70 1015.5
20260505022039 18 353 0.0 0.0 0.00 0.00 0.00 70 1015.7
20260505021536 17 29 0.0 0.0 0.00 0.00 0.00 70 1015.5
20260505021033 17 22 0.0 0.0 0.00 0.00 0.00 69 1015.7
20260505020532 18 357 0.0 0.0 0.00 0.00 0.00 70 1015.6
20260505020030 18 356 0.0 0.0 0.00 0.00 0.00 68 1015.7
20260505015527 18 16 0.0 0.0 0.00 0.00 0.00 68 1015.5
20260505015023 18 20 0.0 0.0 0.00 0.00 0.00 67 1015.7
20260505014520 18 348 0.0 1.6 0.00 0.00 0.00 67 1015.9
20260505014018 18 1 0.0 0.0 0.00 0.00 0.00 66 1016.0
20260505013515 18 25 0.0 1.6 0.00 0.00 0.00 66 1016.1
20260505013012 18 1 0.0 0.0 0.00 0.00 0.00 66 1016.0
20260505012510 18 46 0.0 0.0 0.00 0.00 0.00 65 1015.9
20260505012007 18 298 0.0 0.0 0.00 0.00 0.00 65 1015.8
20260505011502 18 3 0.0 0.0 0.00 0.00 0.00 64 1015.9
20260505011000 18 43 0.0 0.0 0.00 0.00 0.00 63 1015.8
20260505010455 18 6 0.0 0.0 0.00 0.00 0.00 63 1015.9
20260505005951 18 329 0.0 0.0 0.00 0.00 0.00 63 1016.0
20260505005448 19 359 0.0 0.0 0.00 0.00 0.00 62 1016.0
20260505004946 19 356 0.0 0.0 0.00 0.00 0.00 61 1015.8
20260505004442 19 106 0.0 0.0 0.00 0.00 0.00 60 1016.0
20260505003939 20 163 0.0 1.6 0.00 0.00 0.00 59 1015.8
20260505003436 20 5 0.0 0.0 0.00 0.00 0.00 58 1015.7
20260505002932 20 142 1.6 1.6 0.00 0.00 0.00 59 1015.9
20260505002429 20 43 0.0 0.0 0.00 0.00 0.00 57 1015.7
20260505001927 20 56 0.0 0.0 0.00 0.00 0.00 56 1015.8
20260505001425 21 84 0.0 0.0 0.00 0.00 0.00 54 1015.9
20260505000922 21 86 0.0 1.6 0.00 0.00 0.00 54 1016.0
20260505000420 21 47 0.0 1.6 0.00 0.00 0.00 54 1015.9
20260504235916 21 106 0.0 1.6 0.00 0.00 0.00 52 1015.7
20260504235414 21 301 0.0 1.6 0.00 0.00 0.00 52 1015.8
20260504234909 22 141 6.4 6.4 0.00 0.00 0.00 50 1016.0
20260504234407 22 228 1.6 1.6 0.00 0.00 0.00 50 1016.0
20260504233903 22 138 0.0 1.6 0.00 0.00 0.00 49 1016.1
20260504233359 22 0 0.0 1.6 0.00 0.00 0.00 49 1016.1
20260504232856 22 321 0.0 1.6 0.00 0.00 0.00 49 1016.0
20260504232353 22 145 0.0 4.8 0.00 0.00 0.00 50 1016.0
20260504231850 22 17 0.0 1.6 0.00 0.00 0.00 50 1015.9
20260504231346 23 24 1.6 3.2 0.00 0.00 0.00 50 1016.1
20260504230843 23 3 1.6 1.6 0.00 0.00 0.00 48 1015.9
20260504230340 23 274 0.0 1.6 0.00 0.00 0.00 47 1016.1
20260504225839 23 155 0.0 3.2 0.00 0.00 0.00 47 1016.0
20260504225335 23 97 0.0 3.2 0.00 0.00 0.00 47 1016.0
20260504224833 23 65 3.2 3.2 0.00 0.00 0.00 47 1016.1
20260504224329 23 92 0.0 1.6 0.00 0.00 0.00 47 1016.2
20260504223826 23 21 0.0 6.4 0.00 0.00 0.00 47 1015.9
20260504223322 23 98 3.2 3.2 0.00 0.00 0.00 47 1015.9
20260504222818 23 125 1.6 3.2 0.00 0.00 0.00 47 1016.0
20260504222315 24 342 1.6 3.2 0.00 0.00 0.00 46 1016.3
20260504221814 23 6 1.6 3.2 0.00 0.00 0.00 48 1016.1
20260504221310 24 19 0.0 1.6 0.00 0.00 0.00 47 1016.1
20260504220807 24 169 3.2 3.2 0.00 0.00 0.00 45 1015.9
20260504220304 24 338 0.0 1.6 0.00 0.00 0.00 46 1016.1
20260504215801 24 156 0.0 3.2 0.00 0.00 0.00 46 1016.1
20260504215257 25 29 1.6 3.2 0.00 0.00 0.00 45 1016.0
20260504214753 25 260 0.0 3.2 0.00 0.00 0.00 46 1016.0
20260504214250 25 148 3.2 4.8 0.00 0.00 0.00 45 1016.0
20260504213747 25 11 0.0 6.4 0.00 0.00 0.00 45 1016.2
20260504213243 25 132 0.0 6.4 0.00 0.00 0.00 44 1016.3
20260504212740 -17 0.0 0.0 0.00 0.00 0.00 1016.3
20260504212237 -17 0.0 0.0 0.00 0.00 0.00 1016.2
20260504211734 -17 0.0 0.0 0.00 0.00 0.00 1016.4
20260504211230 25 76 3.2 4.8 0.00 0.00 0.00 43 1016.3
20260504210728 25 76 3.2 4.8 0.00 0.00 0.00 43 1016.3
20260504210225 25 134 1.6 1.6 0.00 0.00 0.00 43 1016.3
20260504205722 -17 0.0 0.0 0.00 0.00 0.00 1016.2
20260504205220 -17 0.0 0.0 0.00 0.00 0.00 1016.5
20260504204718 -17 0.0 0.0 0.00 0.00 0.00 1016.2
20260504204216 25 61 1.6 1.6 0.00 0.00 0.00 42 1016.2
20260504203715 25 61 1.6 1.6 0.00 0.00 0.00 42 1016.5
20260504203212 -17 0.0 0.0 0.00 0.00 0.00 1016.3
20260504202711 -17 0.0 0.0 0.00 0.00 0.00 1016.4
20260504202204 -17 0.0 0.0 0.00 0.00 0.00 1016.7
20260504201701 -17 0.0 0.0 0.00 0.00 0.00 1016.6
20260504201158 -17 0.0 0.0 0.00 0.00 0.00 1016.3
20260504200656 -17 0.0 0.0 0.00 0.00 0.00 1016.4
20260504200151 -17 0.0 0.0 0.00 0.00 0.00 1016.9
20260504195647 -17 0.0 0.0 0.00 0.00 0.00 1016.6
20260504195143 -17 0.0 0.0 0.00 0.00 0.00 1016.7
20260504194641 -17 0.0 0.0 0.00 0.00 0.00 1016.8
20260504194137 -17 0.0 0.0 0.00 0.00 0.00 1017.0
20260504193633 26 69 1.6 1.6 0.00 0.00 0.00 43 1017.0
20260504193131 26 69 1.6 1.6 0.00 0.00 0.00 43 1017.0
20260504192629 -17 0.0 0.0 0.00 0.00 0.00 1016.9
20260504192127 26 102 0.0 0.0 0.00 0.00 0.00 41 1017.2
20260504191625 26 102 0.0 0.0 0.00 0.00 0.00 41 1017.1
20260504191121 25 291 0.0 1.6 0.00 0.00 0.00 42 1017.2
20260504190617 25 291 0.0 1.6 0.00 0.00 0.00 42 1017.6
20260504190114 -17 0.0 0.0 0.00 0.00 0.00 1017.5
20260504185610 -17 0.0 0.0 0.00 0.00 0.00 1017.2
20260504185107 -17 0.0 0.0 0.00 0.00 0.00 1017.5
20260504184603 -17 0.0 0.0 0.00 0.00 0.00 1017.4
20260504184058 -17 0.0 0.0 0.00 0.00 0.00 1017.4
20260504183556 -17 0.0 0.0 0.00 0.00 0.00 1017.8
20260504183053 -17 0.0 0.0 0.00 0.00 0.00 1017.8
20260504182550 -17 0.0 0.0 0.00 0.00 0.00 1017.7
20260504182048 -17 0.0 0.0 0.00 0.00 0.00 1017.8
20260504181544 25 276 1.6 1.6 0.00 0.00 0.00 39 1017.7
20260504181043 25 276 1.6 1.6 0.00 0.00 0.00 39 1017.9
20260504180541 -17 0.0 0.0 0.00 0.00 0.00 1017.7
20260504180040 -17 0.0 0.0 0.00 0.00 0.00 1017.7
20260504175537 -17 0.0 0.0 0.00 0.00 0.00 1017.8
20260504175034 -17 0.0 0.0 0.00 0.00 0.00 1017.8
20260504174531 -17 0.0 0.0 0.00 0.00 0.00 1017.9
20260504174028 25 114 3.2 3.2 0.00 0.00 0.00 38 1017.8
20260504173525 25 114 3.2 3.2 0.00 0.00 0.00 38 1018.0
20260504173022 -17 0.0 0.0 0.00 0.00 0.00 1018.2
20260504172518 -17 0.0 0.0 0.00 0.00 0.00 1018.1
20260504172015 -17 0.0 0.0 0.00 0.00 0.00 1018.1
20260504171512 -17 0.0 0.0 0.00 0.00 0.00 1018.2
20260504171009 -17 0.0 0.0 0.00 0.00 0.00 1018.3
20260504170504 -17 0.0 0.0 0.00 0.00 0.00 1018.4
20260504160425 24 281 0.0 3.2 0.00 0.00 0.00 40 1018.7
20260504150848 23 145 0.0 1.6 0.00 0.00 0.00 55 1019.3
20260504150345 22 72 1.6 1.6 0.00 0.00 0.00 54 1019.0
20260504141315 21 282 1.6 3.2 0.00 0.00 0.00 57 1019.3
20260504140812 21 329 0.0 0.0 0.00 0.00 0.00 58 1019.2
20260504140307 21 270 3.2 4.8 0.00 0.00 0.00 58 1019.3
20260504130736 20 304 1.6 3.2 0.00 0.00 0.00 55 1018.9
20260504130232 19 315 0.0 0.0 0.00 0.00 0.00 55 1019.0
20260504120156 -17 0.0 0.0 0.00 0.00 0.00 1018.5
20260504110623 11 17 0.0 0.0 0.00 0.00 0.00 97 1018.4
20260504110119 12 45 0.0 0.0 0.00 0.00 0.00 97 1018.1
20260504100545 12 49 0.0 0.0 0.00 0.00 0.00 96 1018.3